Find Starlink 30443

NORAD ID: 57894 Int'l Des: 2023-146 Owner: SPXS Country: US Constellation: starlink operational
LEOCIRCULAR

Current View

Loading 3D Globe...

About Starlink 30443

Starlink 30443 (NORAD 57894) is a starlink constellation satellite (v2 mini) launched Sep 20, 2023 by SPXS of US. It operates in LEO, CIRCULAR orbit with a mass of 730.00 kg.

About Starlink 30443

Description loading...

Upcoming Passes

Passes for default location (London). Set your location on the main map for personalized predictions.

Altitude History

Loading altitude history...

Two-Line Element Set

1 57894U 23146D 26171.19245858 .00001978 00000-0 81378-4 0 9994
2 57894 43.0039 95.2429 0001291 272.3348 87.7356 15.27584023152738
Epoch: Jun 20, 2026 • Age: 21 hours

Current Status

Altitude 490.8 km
Velocity 7.62 km/s
Sub-Earth Point -30.92°S, 10.38°E
Launch Date Sep 20, 2023
Age 2.7 years
Type internet

Technical Details

Classification Payload
Mass 730.00 kg
Dry Mass 700.00 kg
Total Mass 730.00 kg
Length 0.30 m
Diameter 4.10 m
Span 29.00 m
Shape Box + pan
Manufacturer SPXS
Bus Type Starlink V2M
Phase Status In Orbit
Owner/State SPXS/US

Most Searched